カタログに戻る

EKRAN 9

運用中通信GEO
NORAD 13554·PAYLOAD·🇷🇺 Russia

打ち上げ Sep 16, 1982 から Baikonur Cosmodrome

Loading…

TLE

最新Source: Space-Track

元期: Sep 14, 2026, 02:09 UTC

1 13554U 82093A   26257.09021682 -.00000048  00000-0  00000-0 0  9993
2 13554   6.8937 299.0821 0026952  10.5202 146.5004  1.00205810120895

AllMySatでEKRAN 9をリアルタイム追跡

Download on the App Store